Location: Newark
(15.4608°S, 41.1635°W)
Time: 00:40:29
(UTC+00:00)

Vanguard 3 - Visible Passes

Search period start: 31 July 2021 00:00
Search period end: 10 August 2021 00:00
Orbit: 508 x 3261 km, 33.4° (Epoch: 30 July)

Date Brightness Start Highest point End Pass type
(mag) Time Alt. Az. Time Alt. Az. Time Alt. Az.
31 Jul 9.6 05:53:40 24° E 05:53:40 24° E 05:55:52 10° ESE visible
31 Jul 7.9 07:58:17 24° W 08:01:46 39° SSW 08:06:23 10° SE visible
01 Aug 7.9 06:48:48 63° SSE 06:48:48 63° SSE 06:53:29 10° SE visible
02 Aug 10.1 05:39:11 15° ESE 05:39:11 15° ESE 05:40:04 10° ESE visible
02 Aug 8.2 07:43:47 31° WSW 07:45:28 35° SSW 07:50:23 10° SE visible
03 Aug 11.4 01:51:08 10° N 01:52:01 11° N 01:52:01 11° N visible
03 Aug 8.7 06:34:04 39° SE 06:34:04 39° SE 06:37:31 10° SE visible
03 Aug 8.9 08:39:29 10° WSW 08:43:34 16° SSW 08:46:43 10° SSE visible
04 Aug 8.6 07:28:51 32° SW 07:29:09 32° SSW 07:34:23 10° SSE visible
05 Aug 11.4 01:31:39 10° N 01:34:48 14° N 01:34:48 14° N visible
05 Aug 9.3 06:18:59 27° SE 06:18:59 27° SE 06:21:30 10° SE visible
05 Aug 9.0 08:23:32 11° WSW 08:27:28 16° SSW 08:30:52 10° SSE visible
06 Aug 11.3 00:19:11 10° N 00:24:02 12° NNE 00:24:02 12° NNE visible
06 Aug 11.5 02:28:05 10° NNW 02:28:31 11° NNW 02:28:31 11° NNW visible
06 Aug 8.8 07:13:37 30° SSW 07:13:37 30° SSW 07:18:23 10° SSE visible
07 Aug 11.2 01:12:42 10° NNW 01:17:48 18° N 01:17:48 18° N visible
07 Aug 9.8 06:03:38 20° SE 06:03:38 20° SE 06:05:27 10° SE visible
07 Aug 9.2 08:08:11 13° SW 08:11:23 17° SSW 08:15:08 10° SSE visible
07 Aug 11.2 23:59:11 10° N 00:07:08 15° NNE 00:07:08 15° NNE visible
08 Aug 11.4 02:09:37 10° NNW 02:11:37 14° NNW 02:11:37 14° NNW visible
08 Aug 9.1 06:58:09 28° S 06:58:09 28° S 07:02:26 10° SE visible
09 Aug 11.1 00:54:03 10° NNW 01:01:01 22° N 01:01:01 22° N visible
09 Aug 10.1 05:48:05 17° SE 05:48:05 17° SE 05:49:23 10° SE visible
09 Aug 9.3 07:52:38 16° SW 07:55:18 18° SSW 07:59:29 10° SSE visible
